RH
100 100 83 70 64 79 76 76 62 68 72 56 51 54 60 58 51 46 44 46 49 47 41 45 52 50 57 52 57 55 58 60 57 46 62 62 57 46 45 39 48 55 65
100 100 99 83 71 91 80 76 73 84 70 74 69 67 64 70 66 52 50 55 57 54 51 51 49 52 67 60 61 70 70 64 60 44 52 58 49 45 44 48 56 62 79
100 100 86 80 69 78 84 90 77 70 73 67 64 67 54 68 88 84 76 80 65 60 50 52 50 55 72 60 67 60 72 68 52 55 49 47 47 56 50 40 61 74 91
90 87 84 80 90 92 96 78 76 81 78 73 59 52 54 73 100 100 100 84 66 63 51 46 58 75 74 69 67 50 52 50 50 50 50 39 38 46 47 36 72 92 86
79 88 96 84 100 100 96 91 87 86 85 76 58 68 70 87 100 100 91 67 60 55 47 42 58 66 55 53 53 41 48 49 47 56 54 42 47 44 41 51 76 92 99
73 100 100 100 100 100 87 94 100 100 98 95 82 87 92 92 92 66 52 49 55 56 46 46 48 52 51 51 46 42 43 39 45 39 48 45 44 41 56 81 76 98 100
89 100 99 95 100 100 96 100 100 100 100 100 100 100 98 100 100 97 59 63 59 65 46 46 39 38 41 34 35 34 40 42 52 50 44 40 40 59 81 97 98 97 88
85 60 81 100 100 100 100 100 100 100 100 100 100 100 100 95 65 61 70 68 55 57 36 31 33 42 37 31 28 32 32 44 58 53 47 44 56 82 100 100 100 100 87
91 94 100 99 100 100 100 100 100 100 100 100 100 100 100 84 76 72 76 52 49 51 39 31 32 35 27 27 32 33 37 44 54 57 53 64 67 95 98 100 88 100 76
97 85 70 62 63 77 90 100 100 100 100 100 100 100 93 90 79 65 50 46 55 55 42 33 36 26 24 28 34 39 39 48 53 55 63 71 74 78 100 100 94 100 79
71 63 62 95 100 100 100 100 100 100 100 90 86 87 83 76 75 80 69 69 50 45 32 34 39 27 29 31 29 38 50 57 62 75 68 72 80 100 100 100 96 100 85
92 95 99 100 100 100 100 100 100 100 100 100 100 98 89 69 61 60 52 43 32 25 24 32 30 30 32 39 41 43 66 60 79 84 93 100 100 100 100 100 100 96 62
100 100 100 100 100 100 100 100 100 100 100 100 100 97 78 60 50 35 27 24 22 23 41 55 58 74 73 68 62 87 67 69 82 96 100 100 100 100 100 100 74 68 45
100 100 100 100 100 100 100 100 100 100 100 100 100 90 79 97 63 36 34 43 70 61 91 99 97 91 78 71 88 78 89 99 100 100 100 100 100 100 100 86 59 44 43
100 100 100 100 100 100 100 100 100 100 100 100 100 100 97 100 84 78 86 82 100 100 100 100 98 100 100 100 99 100 100 100 100 100 100 100 99 96 72 49 45 44 47
100 100 100 100 100 100 100 100 100 100 100 100 100 100 99 98 91 100 100 94 100 100 100 100 100 100 94 100 100 100 100 100 100 100 100 81 88 85 46 44 40 37 40
100 100 100 100 100 100 100 91 100 100 100 100 100 100 100 100 100 100 97 100 86 100 94 100 100 90 94 91 100 100 100 94 100 84 69 79 65 50 41 37 37 40 39
100 100 100 100 100 100 100 100 100 100 100 100 100 100 100 100 100 100 100 100 100 100 100 94 75 94 87 95 100 96 90 100 88 75 71 61 52 36 41 31 31 34 35
100 100 100 100 100 100 100 100 100 100 100 100 100 100 99 100 100 100 100 100 100 93 64 82 99 100 100 100 100 85 59 63 64 65 59 53 36 41 28 29 28 27 30
100 100 100 100 100 100 100 100 100 100 100 100 100 100 100 100 100 100 92 80 81 99 95 94 100 95 93 100 93 64 66 66 56 67 49 34 33 30 27 24 24 23 25
100 100 100 100 100 100 94 100 100 100 100 100 100 100 100 100 100 100 100 100 100 100 100 90 100 99 99 94 72 51 62 78 46 52 40 38 25 24 20 20 20 21 21
100 100 100 100 100 100 100 100 100 100 100 100 100 100 100 100 100 100 100 100 100 100 100 100 100 94 82 65 56 63 56 56 60 56 34 25 22 18 17 18 18 16 16
100 100 100 100 100 100 100 100 100 100 100 100 100 100 100 100 100 100 100 100 100 100 100 100 88 75 72 66 46 54 62 54 59 33 29 23 18 15 14 14 14 14 14
100 100 100 100 100 100 100 100 100 100 100 100 100 100 100 100 100 100 100 100 100 88 82 70 73 76 60 46 49 79 68 63 42 34 23 19 14 12 12 13 14 14 14
100 99 100 100 100 100 100 100 100 100 100 100 100 100 100 100 100 100 100 92 90 92 85 76 70 50 55 70 83 69 58 49 32 25 19 15 12 13 14 14 14 14 16
100 100 100 98 96 95 100 100 100 100 100 85 67 86 100 99 98 98 90 97 98 68 53 49 66 59 94 78 69 65 41 34 22 18 15 13 14 15 14 16 17 19 21
Wind_Speed
51 49 47 44 43 41 42 38 38 38 37 35 33 32 33 35 35 35 34 30 35 35 36 37 37 38 39 41 41 43 43 45 47 54 48 45 48 49 51 67 70 75 80
54 52 51 48 46 45 42 40 40 38 38 36 36 36 37 38 39 36 35 38 39 38 39 41 44 44 43 43 44 45 48 47 53 57 51 48 47 50 55 73 74 79 83
58 55 53 48 46 47 42 41 41 42 39 41 41 43 48 47 44 43 42 39 39 41 44 50 50 48 48 47 45 50 51 52 56 59 53 51 48 52 66 71 76 82 85
61 58 53 51 46 47 45 45 44 42 43 43 46 51 51 48 47 42 37 40 44 47 52 55 53 51 49 50 48 50 51 56 58 59 48 50 54 64 69 72 77 82 91
61 60 52 47 48 50 47 46 48 47 48 53 55 52 51 54 46 41 40 47 52 52 56 55 55 54 52 52 50 51 50 52 55 45 50 55 65 69 72 78 80 86 94
60 57 52 49 53 51 51 53 46 46 50 54 54 56 57 53 49 52 57 56 54 57 55 54 54 53 53 51 50 51 53 58 53 56 52 58 72 76 79 86 90 89 96
63 60 60 57 54 55 53 53 51 49 53 56 56 58 58 50 47 50 59 58 60 56 55 53 52 50 48 51 50 54 58 63 60 60 59 69 73 79 83 86 95 100 100
62 60 59 58 56 52 48 54 60 59 56 57 58 54 51 55 64 63 63 64 59 57 52 49 51 50 52 57 60 62 66 65 65 66 70 69 77 81 83 87 97 101 103
55 57 54 55 56 58 58 58 64 65 59 57 59 61 59 62 65 70 68 59 56 54 52 51 53 52 60 58 63 63 66 61 64 68 72 77 82 84 90 97 100 110 109
50 55 59 59 60 63 63 52 48 55 60 60 60 64 67 70 71 66 61 59 58 57 57 60 54 60 63 60 63 64 66 65 69 73 76 80 84 87 97 101 108 113 110
45 49 51 48 47 46 45 50 55 52 59 68 70 73 71 67 69 66 65 64 61 63 64 61 62 69 68 69 69 73 73 75 76 76 85 89 91 95 97 108 109 121 121
40 41 41 43 45 47 52 53 58 61 64 68 70 70 68 73 72 69 66 67 67 62 66 69 68 74 71 73 76 77 77 84 85 86 88 87 94 99 105 113 119 122 122
43 43 45 50 53 48 49 55 56 57 62 65 69 72 74 71 71 73 71 65 70 71 70 71 72 63 69 75 77 78 83 86 89 89 87 95 102 105 111 116 127 126 110
49 43 47 51 48 49 55 55 57 59 63 66 69 72 74 74 76 78 73 75 71 74 68 71 68 77 78 83 83 89 91 86 91 96 99 103 106 115 120 124 130 115 99
57 47 49 49 52 56 55 55 56 56 65 65 69 70 74 77 77 76 75 74 73 70 73 69 82 78 78 88 94 91 94 95 100 104 106 111 116 122 131 133 115 106 95
56 59 59 57 55 55 57 59 61 64 69 69 78 76 78 77 73 76 75 73 69 74 72 70 77 90 94 95 99 100 101 109 103 107 114 120 123 132 134 115 107 98 93
66 66 60 62 62 61 57 65 65 71 72 76 77 77 75 76 75 77 79 78 85 80 82 86 95 98 99 103 101 104 109 113 115 115 122 122 132 138 117 111 100 94 91
65 73 69 67 66 67 71 74 75 78 79 79 78 80 78 82 81 81 86 86 84 89 96 98 102 106 108 107 109 113 116 118 119 128 129 136 143 123 122 102 97 93 89
74 79 73 77 76 77 74 78 78 79 78 81 85 84 84 85 86 86 88 92 97 99 105 106 110 111 110 117 117 122 122 124 128 134 138 148 127 126 108 100 94 88 85
78 80 73 71 74 73 78 79 80 82 82 83 84 82 86 90 91 94 99 103 103 106 110 112 114 118 122 123 127 132 130 133 135 141 148 134 129 114 101 92 87 82 80
82 82 81 78 78 79 81 81 81 85 89 90 91 92 92 94 96 99 100 101 106 110 118 121 120 124 124 130 133 135 137 141 143 150 142 127 113 100 93 87 83 80 77
92 91 89 94 90 84 86 87 90 91 92 97 96 97 95 97 99 106 108 111 115 120 122 126 129 132 133 139 137 140 143 149 150 153 127 123 103 95 88 84 81 77 74
97 99 95 98 98 100 99 96 96 93 97 99 102 105 108 111 112 114 116 120 124 127 130 134 140 143 138 140 141 146 152 152 153 130 131 108 96 91 84 79 77 73 70
103 100 99 101 102 106 105 104 106 108 108 109 108 107 113 116 120 126 128 131 132 135 135 141 141 142 142 143 145 157 161 157 140 132 112 99 91 84 80 77 74 69 64
113 112 108 108 107 108 113 114 116 118 118 121 124 124 125 127 130 135 135 138 137 139 141 144 144 143 148 149 156 156 156 137 130 110 103 93 86 81 77 72 65 58 52
118 118 119 119 118 120 118 118 119 122 124 125 128 127 131 131 130 134 137 136 142 146 147 149 151 150 155 162 160 156 134 131 111 104 94 88 82 76 69 60 54 48 44
Wind_Direction
252 256 259 264 267 266 271 267 270 274 275 274 277 283 291 295 296 295 295 297 303 303 305 306 306 307 305 304 305 306 311 315 319 327 327 321 324 329 329 338 343 347 348
252 253 257 265 267 262 264 265 270 271 270 271 277 283 289 294 295 292 292 294 300 299 301 304 307 305 301 300 305 306 309 312 315 320 324 321 322 321 326 335 343 345 344
249 252 258 262 264 264 259 266 264 270 270 274 280 288 293 292 291 290 288 294 295 296 302 308 306 304 298 302 307 311 308 308 314 319 319 320 320 321 325 334 343 344 343
247 251 255 257 257 254 261 267 265 267 268 273 285 290 294 291 295 295 293 289 293 300 304 305 302 299 299 302 305 307 308 310 314 317 317 321 320 323 325 333 340 339 339
245 250 247 252 252 258 262 263 267 269 271 281 288 291 291 292 292 290 289 291 295 299 301 304 300 300 302 302 304 308 310 311 317 316 317 320 324 326 329 336 337 335 334
245 242 247 252 255 258 261 266 263 270 279 282 285 289 288 289 286 287 291 293 295 297 300 300 301 300 303 304 306 311 315 317 314 315 310 319 326 328 331 335 337 332 332
239 242 250 253 255 259 261 259 264 274 276 280 283 286 291 287 284 284 290 294 295 296 294 296 301 304 308 313 310 311 315 313 312 312 308 312 323 328 330 331 334 331 330
243 247 250 252 255 255 255 258 267 272 271 278 283 284 275 275 283 285 288 290 291 291 294 298 303 303 305 307 309 309 312 311 311 310 318 317 323 328 326 328 328 329 327
245 245 245 251 255 257 260 264 267 270 272 276 273 274 276 276 280 284 286 288 289 287 293 297 298 295 306 308 312 310 310 314 310 310 313 318 322 324 325 323 325 327 328
242 243 248 252 256 261 263 263 270 270 271 264 265 268 272 274 277 281 285 288 290 290 291 295 292 301 305 309 312 313 314 316 316 316 317 319 320 320 319 318 325 325 326
247 247 246 255 256 255 259 267 273 266 264 266 264 267 271 276 280 281 283 285 287 289 292 294 293 298 307 306 311 315 317 315 315 315 319 319 320 318 319 317 320 321 323
235 243 239 243 249 258 269 267 263 265 266 269 272 271 272 278 278 278 282 285 286 290 292 298 296 303 306 307 310 313 316 317 316 318 316 316 315 314 317 318 318 318 318
238 246 260 259 263 262 263 264 265 268 268 272 271 275 279 278 279 281 286 286 289 291 294 299 303 300 300 306 309 311 313 314 314 314 311 311 312 313 313 312 316 316 316
234 252 258 260 258 252 256 260 264 269 271 270 272 278 284 284 287 292 291 294 291 296 298 297 296 298 301 305 307 308 310 310 313 313 312 312 310 311 311 314 314 316 315
240 248 250 260 259 254 261 265 267 267 263 269 272 274 280 282 287 290 289 292 292 292 297 294 299 300 301 304 305 306 306 309 307 307 308 309 309 313 315 315 315 315 312
247 252 252 253 251 256 256 258 258 255 259 262 266 274 276 277 279 283 283 286 284 292 290 293 291 295 297 299 301 302 304 305 305 307 307 310 311 314 315 314 314 311 308
246 251 246 243 246 251 248 254 253 256 259 264 267 269 271 271 274 276 282 278 285 284 288 288 294 295 296 298 298 301 303 305 305 307 309 310 315 315 314 313 310 306 305
239 239 245 242 244 248 246 246 250 254 259 261 263 264 265 269 275 276 280 282 282 284 286 289 293 293 294 298 298 302 304 305 307 310 311 312 315 314 315 310 308 305 301
231 235 241 243 242 243 245 246 250 252 254 257 261 264 270 273 274 275 276 280 283 288 290 290 291 294 293 296 299 302 303 304 306 310 313 315 313 314 310 308 304 301 299
234 231 235 238 240 241 242 243 245 249 254 257 260 261 265 268 272 275 279 283 285 285 287 290 290 293 296 297 299 301 303 306 309 312 313 314 311 311 308 304 302 300 298
230 233 233 234 241 244 248 249 249 251 254 256 260 263 267 271 274 277 280 282 284 286 288 290 291 294 294 296 300 302 305 308 307 314 314 312 310 308 305 303 301 298 296
228 232 237 234 238 242 243 247 251 253 255 257 260 263 264 268 271 276 279 283 284 283 287 287 290 292 295 297 300 303 307 308 307 312 311 312 309 305 303 300 298 295 292
233 234 238 237 240 243 246 248 251 254 260 265 266 268 270 271 275 279 280 281 282 284 287 289 290 293 297 299 300 304 306 306 308 310 311 308 304 303 302 299 296 293 291
235 240 242 244 248 246 248 252 254 258 262 264 268 269 271 273 274 274 278 282 283 286 288 288 291 294 297 297 302 305 306 306 309 308 306 303 303 303 301 298 296 293 290
240 242 245 248 251 253 253 254 255 258 260 263 265 267 271 273 274 275 280 281 283 285 288 289 292 294 295 298 304 304 305 307 307 304 304 304 304 303 301 299 297 295 292
244 246 248 250 253 254 257 258 259 260 263 266 268 270 273 274 275 277 280 281 282 283 286 288 292 292 296 297 301 302 304 304 303 303 304 305 305 304 302 301 299 295 290